Regional Weather Roundup
Issued by NWS

Home | Current Version | Previous Version | Graphics & Text | Print | Product List | Glossary On
Versions: 1 2 3 4 5 6 7 8 9 10 11 12 13 14 15 16 17 18 19 20 21 22 23 24 25 26 27 28 29 30 31 32 33 34 35 36 37 38 39 40 41 42 43 44 45 46 47 48 49 50
000
ASUS43 KTOP 251159
RWRKS

WEATHER ROUNDUP FOR KANSAS
NATIONAL WEATHER SERVICE GOODLAND KS
600 AM CST SAT FEB 25 2017

NOTE:  "FAIR" INDICATES FEW OR NO CLOUDS BELOW 12,000 FEET WITH NO
SIGNIFICANT WEATHER AND/OR OBSTRUCTIONS TO VISIBILITY.

KSZ001>006-013>018-027>032-041>047-251300-
NORTHWEST KANSAS

CITY           SKY/WX    TMP DP  RH WIND       PRES   REMARKS
GOODLAND       CLOUDY    20  16  84 SW12      30.05S WCI   8
6HR MIN TEMP:   7; 6HR MAX TEMP:  20;

HAYS           CLEAR      8   5  87 W7        30.17S
HILL CITY      CLEAR      9   6  88 W7        30.14S
6HR MIN TEMP:   8; 6HR MAX TEMP:  17;

RUSSELL        CLEAR      9   5  84 W6        30.15S
6HR MIN TEMP:   8; 6HR MAX TEMP:  18;

$$

KSZ061>065-074>080-084>089-251300-
SOUTHWEST KANSAS

CITY           SKY/WX    TMP DP  RH WIND       PRES   REMARKS
DODGE CITY     CLOUDY    13   9  84 W5        30.15F
6HR MIN TEMP:   9; 6HR MAX TEMP:  14;

ELKHART          N/A     17   5  59 SW3         N/A
GARDEN CITY    CLOUDY    14   9  80 W6        30.15R
6HR MIN TEMP:   7; 6HR MAX TEMP:  16;

GREAT BEND     CLEAR     12   9  87 W9        30.18S
LIBERAL        CLOUDY    19   9  63 CALM      30.16R
$$

KSZ066>073-081>083-090>101-251300-
SOUTHEAST KANSAS

CITY           SKY/WX    TMP DP  RH WIND       PRES   REMARKS
CHANUTE        CLEAR     21  16  81 NW9       30.17R
6HR MIN TEMP:  21; 6HR MAX TEMP:  26;

COFFEYVILLE    CLEAR     22  17  81 NW8       30.19S
6HR MIN TEMP:  22; 6HR MAX TEMP:  30;

HUTCHINSON     CLEAR     14  10  84 NW7       30.18S
6HR MIN TEMP:  14; 6HR MAX TEMP:  22;

MEDICINE LODGE   N/A     14  10  84 W6        30.21R
NEWTON         CLEAR     17  13  84 NW9       30.18S
PARSONS        CLEAR     19  15  84 NW5       30.18S
6HR MIN TEMP:  19; 6HR MAX TEMP:  28;

WICHITA INTL   CLEAR     20  15  81 N9        30.18S
6HR MIN TEMP:  19; 6HR MAX TEMP:  25;

WICHITA JABRA  CLEAR     19  15  84 NW12      30.18S WCI   7
6HR MIN TEMP:  19; 6HR MAX TEMP:  23;

WINFIELD       CLEAR     21  16  81 NW9       30.20S
6HR MIN TEMP:  20; 6HR MAX TEMP:  25;

$$

KSZ007>012-019>026-033>040-048>060-102>105-251300-
NORTHEAST KANSAS

CITY           SKY/WX    TMP DP  RH WIND       PRES   REMARKS
CONCORDIA      CLEAR     15  11  83 W10       30.16R WCI   2
6HR MIN TEMP:  14; 6HR MAX TEMP:  22;

EMPORIA        CLEAR     19  15  84 W9        30.17R
6HR MIN TEMP:  19; 6HR MAX TEMP:  24;

LAWRENCE       CLEAR     15  13  91 W6        30.14R
6HR MIN TEMP:  15; 6HR MAX TEMP:  24;

MANHATTAN      CLEAR     19  13  77 W5        30.17R
6HR MIN TEMP:  17; 6HR MAX TEMP:  24;

OLATHE IND     CLEAR     20  16  84 NW9       30.12R
6HR MIN TEMP:  20; 6HR MAX TEMP:  24;

OLATHE EXE     CLEAR     21  17  84 NW8       30.11R
6HR MIN TEMP:  21; 6HR MAX TEMP:  24;

SALINA         CLEAR     19  13  77 W10       30.20R WCI   7
6HR MIN TEMP:  19; 6HR MAX TEMP:  24;

TOPEKA BILLARD CLEAR     21  17  84 W8        30.16R
6HR MIN TEMP:  20; 6HR MAX TEMP:  25;

TOPEKA FORBES  CLEAR     20  15  81 W10       30.15R WCI   9
6HR MIN TEMP:  18; 6HR MAX TEMP:  26;

$$




USA.gov is the U.S. government's official web portal to all federal, state and local government web resources and services.